When you browse on this site, cookies collect data to enhance your experience and personalize the content and advertising you see.
Visit our Privacy Policy to learn more. By continuing to use the site, you agree to this use of cookies and data.
  • In Hungary
  • List of Countries
  • For 7 days
  • Water Temperature
  • Satellite Maps
  • Weather Map
  • News
  • Weather Widgets
  • user-avatar
    Login

    Hourly Weather Marzecin

    Today, 11 December, Tuesday

    Time Temperature Precipitation Wind Pressure Humidity
    00:00 +2°C° 0.1 mm 5 mps 749 mmHg 79%
    01:00 +3°C° 0 mm 4 mps 749 mmHg 82%
    02:00 +2°C° 0.4 mm 5 mps 749 mmHg 81%
    03:00 +2°C° 0.4 mm 5 mps 749 mmHg 81%
    04:00 +2°C° 0.4 mm 5 mps 749 mmHg 81%
    05:00 +2°C° 0.7 mm 5 mps 749 mmHg 80%
    06:00 +2°C° 0.7 mm 5 mps 749 mmHg 80%
    07:00 +1°C° 0 mm 5 mps 749 mmHg 81%
    08:00 +1°C° 0.4 mm 5 mps 749 mmHg 81%
    09:00 +1°C° 0.4 mm 5 mps 750 mmHg 81%
    10:00 +2°C° 0.4 mm 5 mps 750 mmHg 80%
    11:00 +2°C° 0.2 mm 5 mps 750 mmHg 78%
    12:00 +2°C° 0.2 mm 5 mps 751 mmHg 76%
    13:00 +2°C° 0.2 mm 5 mps 751 mmHg 74%
    14:00 +3°C° 0.1 mm 4 mps 752 mmHg 76%
    15:00 +1°C° 0.1 mm 4 mps 752 mmHg 78%
    16:00 +2°C° 0.1 mm 3 mps 753 mmHg 80%
    17:00 +1°C° 0.1 mm 3 mps 753 mmHg 82%
    18:00 +1°C° 0.1 mm 3 mps 753 mmHg 84%
    19:00 +1°C° 0.1 mm 3 mps 754 mmHg 87%
    20:00 +2°C° 0 mm 2 mps 754 mmHg 89%
    21:00 +1°C° 0 mm 2 mps 754 mmHg 91%
    22:00 +1°C° 0 mm 2 mps 755 mmHg 93%
    23:00 +1°C° 0 mm 2 mps 755 mmHg 94%

    Tomorrow, 12 December, Wednesday

    Time Temperature Precipitation Wind Pressure Humidity
    00:00 +1°C° 0 mm 2 mps 756 mmHg 94%
    01:00 +1°C° 0 mm 2 mps 756 mmHg 94%
    02:00 +1°C° 0.1 mm 2 mps 756 mmHg 95%
    03:00 +1°C° 0.1 mm 2 mps 757 mmHg 95%
    04:00 +1°C° 0.1 mm 2 mps 757 mmHg 95%
    05:00 +1°C° 0.1 mm 2 mps 758 mmHg 95%
    06:00 +1°C° 0.1 mm 2 mps 758 mmHg 94%
    07:00 +1°C° 0.1 mm 2 mps 758 mmHg 93%
    08:00 +1°C° 0 mm 2 mps 759 mmHg 91%
    09:00 +1°C° 0 mm 2 mps 759 mmHg 88%
    10:00 +1°C° 0 mm 2 mps 760 mmHg 86%
    11:00 +2°C° 0 mm 2 mps 760 mmHg 84%
    12:00 +2°C° 0 mm 2 mps 760 mmHg 82%
    13:00 +2°C° 0 mm 2 mps 760 mmHg 80%
    14:00 +2°C° 0 mm 2 mps 760 mmHg 83%
    15:00 +1°C° 0 mm 2 mps 761 mmHg 87%
    16:00 +1°C° 0 mm 1 mps 761 mmHg 90%
    17:00 +1°C° 0 mm 1 mps 761 mmHg 91%
    18:00 +1°C° 0 mm 1 mps 761 mmHg 93%
    19:00 +1°C° 0 mm 1 mps 761 mmHg 94%
    20:00 +1°C° 0 mm 1 mps 761 mmHg 94%
    21:00 0°C° 0 mm 1 mps 762 mmHg 94%
    22:00 0°C° 0 mm 1 mps 762 mmHg 94%
    23:00 0°C° 0 mm 1 mps 762 mmHg 95%

    Day after tomorrow, 13 December, Thursday

    Time Temperature Precipitation Wind Pressure Humidity
    00:00 0°C° 0 mm 1 mps 762 mmHg 95%
    01:00 0°C° 0 mm 1 mps 761 mmHg 95%
    02:00 0°C° 0 mm 1 mps 761 mmHg 95%
    03:00 +1°C° 0 mm 1 mps 761 mmHg 95%
    04:00 +1°C° 0 mm 1 mps 761 mmHg 94%
    05:00 +1°C° 0.1 mm 1 mps 761 mmHg 94%
    06:00 +1°C° 0.1 mm 1 mps 761 mmHg 94%
    07:00 +1°C° 0.1 mm 1 mps 761 mmHg 94%
    08:00 -1°C° 0 mm 2 mps 761 mmHg 93%
    09:00 -1°C° 0 mm 2 mps 761 mmHg 92%
    10:00 -1°C° 0 mm 2 mps 761 mmHg 91%
    11:00 +1°C° 0 mm 2 mps 761 mmHg 89%
    12:00 +1°C° 0 mm 2 mps 761 mmHg 88%
    13:00 +1°C° 0 mm 2 mps 760 mmHg 86%
    14:00 +1°C° 0 mm 2 mps 760 mmHg 87%
    15:00 +1°C° 0 mm 2 mps 760 mmHg 87%
    16:00 -1°C° 0 mm 2 mps 760 mmHg 88%
    17:00 -1°C° 0 mm 2 mps 760 mmHg 88%
    18:00 -1°C° 0 mm 2 mps 761 mmHg 89%
    19:00 -1°C° 0 mm 2 mps 761 mmHg 89%
    20:00 -2°C° 0 mm 2 mps 761 mmHg 90%
    21:00 -2°C° 0 mm 2 mps 761 mmHg 92%
    22:00 -2°C° 0 mm 2 mps 761 mmHg 93%
    23:00 -2°C° 0 mm 2 mps 761 mmHg 94%

    14 December, Friday

    Time Temperature Precipitation Wind Pressure Humidity
    00:00 -2°C° 0 mm 2 mps 761 mmHg 94%
    01:00 -2°C° 0 mm 2 mps 761 mmHg 94%
    02:00 -3°C° 0 mm 2 mps 761 mmHg 94%
    03:00 -3°C° 0 mm 2 mps 761 mmHg 93%
    04:00 -3°C° 0 mm 2 mps 761 mmHg 93%
    05:00 -3°C° 0 mm 2 mps 761 mmHg 92%
    06:00 -2°C° 0 mm 2 mps 761 mmHg 91%
    07:00 -2°C° 0 mm 2 mps 761 mmHg 90%
    08:00 -2°C° 0 mm 2 mps 762 mmHg 88%
    09:00 -2°C° 0 mm 2 mps 762 mmHg 86%
    10:00 -1°C° 0 mm 3 mps 762 mmHg 83%
    11:00 -1°C° 0 mm 3 mps 762 mmHg 82%
    12:00 -1°C° 0 mm 3 mps 762 mmHg 80%
    13:00 0°C° 0 mm 3 mps 762 mmHg 78%
    14:00 -1°C° 0 mm 3 mps 762 mmHg 79%
    15:00 -1°C° 0 mm 3 mps 762 mmHg 81%
    16:00 -1°C° 0 mm 3 mps 762 mmHg 82%
    17:00 -2°C° 0 mm 3 mps 763 mmHg 82%
    18:00 -2°C° 0 mm 3 mps 763 mmHg 82%
    19:00 -2°C° 0 mm 3 mps 763 mmHg 82%
    20:00 -2°C° 0 mm 3 mps 763 mmHg 84%
    21:00 -3°C° 0 mm 2 mps 764 mmHg 86%
    22:00 -3°C° 0 mm 2 mps 764 mmHg 87%
    23:00 -3°C° 0 mm 2 mps 764 mmHg 88%

    15 December, Saturday

    Time Temperature Precipitation Wind Pressure Humidity
    00:00 -4°C° 0 mm 2 mps 764 mmHg 89%
    01:00 -4°C° 0 mm 2 mps 764 mmHg 91%
    02:00 -4°C° 0 mm 2 mps 764 mmHg 91%
    03:00 -4°C° 0 mm 2 mps 764 mmHg 92%
    04:00 -4°C° 0 mm 2 mps 764 mmHg 92%
    05:00 -3°C° 0 mm 2 mps 764 mmHg 92%
    06:00 -3°C° 0 mm 2 mps 765 mmHg 92%
    07:00 -3°C° 0 mm 2 mps 765 mmHg 92%
    08:00 -2°C° 0 mm 2 mps 765 mmHg 91%
    09:00 -2°C° 0 mm 2 mps 766 mmHg 89%
    10:00 -1°C° 0 mm 2 mps 766 mmHg 88%
    11:00 -1°C° 0 mm 2 mps 766 mmHg 85%
    12:00 -1°C° 0 mm 2 mps 766 mmHg 82%
    13:00 +1°C° 0 mm 2 mps 766 mmHg 79%
    14:00 -1°C° 0 mm 2 mps 766 mmHg 81%
    15:00 -1°C° 0 mm 2 mps 766 mmHg 83%
    16:00 0°C° 0 mm 1 mps 766 mmHg 85%
    17:00 0°C° 0 mm 1 mps 767 mmHg 85%
    18:00 0°C° 0 mm 1 mps 767 mmHg 85%
    19:00 0°C° 0 mm 1 mps 767 mmHg 86%
    20:00 0°C° 0 mm 1 mps 767 mmHg 87%
    21:00 -1°C° 0 mm 1 mps 767 mmHg 88%
    22:00 -1°C° 0 mm 1 mps 767 mmHg 89%
    23:00 -1°C° 0 mm 1 mps 767 mmHg 90%

    16 December, Sunday

    Time Temperature Precipitation Wind Pressure Humidity
    00:00 -1°C° 0 mm 1 mps 767 mmHg 90%
    01:00 -1°C° 0 mm 1 mps 767 mmHg 91%
    02:00 -2°C° 0 mm 1 mps 767 mmHg 91%
    03:00 -2°C° 0 mm 1 mps 767 mmHg 91%
    04:00 -2°C° 0 mm 1 mps 767 mmHg 91%
    05:00 -2°C° 0 mm 1 mps 766 mmHg 91%
    06:00 -4°C° 0 mm 2 mps 766 mmHg 91%
    07:00 -4°C° 0 mm 2 mps 766 mmHg 91%
    08:00 -3°C° 0 mm 2 mps 766 mmHg 88%
    09:00 -3°C° 0 mm 2 mps 766 mmHg 85%
    10:00 -2°C° 0 mm 3 mps 766 mmHg 82%
    11:00 -2°C° 0 mm 3 mps 766 mmHg 79%
    12:00 -1°C° 0 mm 3 mps 765 mmHg 76%
    13:00 -1°C° 0 mm 3 mps 765 mmHg 73%
    14:00 -1°C° 0 mm 3 mps 765 mmHg 77%
    15:00 -2°C° 0 mm 3 mps 764 mmHg 81%
    16:00 -4°C° 0 mm 3 mps 764 mmHg 84%
    17:00 -4°C° 0 mm 3 mps 764 mmHg 83%
    18:00 -4°C° 0 mm 4 mps 763 mmHg 82%
    19:00 -4°C° 0 mm 4 mps 763 mmHg 81%
    20:00 -4°C° 0 mm 4 mps 763 mmHg 80%
    21:00 -4°C° 0 mm 4 mps 762 mmHg 79%
    22:00 -4°C° 0 mm 4 mps 762 mmHg 78%
    23:00 -4°C° 0 mm 4 mps 761 mmHg 77%
    Show more